DW8501 Madrid ES current weather conditions

sailwx.info

Wind from 184 at 1 knots gusting 8

Air temperature 28.3° C
Dewpoint 14.9° C

Last reported at 2015-Jul-03 22:55 UTC.
Time now 2015-Jul-03 23:40 UTC

Location: N 40°27' W 003°35'.
View on Google Maps.

See reports from other nearby stations

  
Tides and Currents Weather Stations Pressure Air Temp Water Temp Dewpoint Dewpoint Depression Visibility Wind Speed Wind Dir Waves Ship Positions
date/time (UTC)wind fromknots sea level pressurealtimeterstation pressurevisibilityair tempwater tempwave heightnotes
2015-Jul-03 22:55 184 1 gusting 8 28.3
2015-Jul-03 22:50 191 3 gusting 8 28.9
2015-Jul-03 22:45 162 4 gusting 9 28.9
2015-Jul-03 22:40 168 4 gusting 12 28.9
2015-Jul-03 22:35 171 6 gusting 12 28.9
2015-Jul-03 22:30 155 3 gusting 12 29.4
2015-Jul-03 22:25 127 6 gusting 11 29.4
2015-Jul-03 22:20 173 3 gusting 11 29.4
2015-Jul-03 22:15 206 5 gusting 7 29.4
2015-Jul-03 22:10 185 3 gusting 7 29.4
2015-Jul-03 22:05 183 3 gusting 8 30.0
2015-Jul-03 22:00 179 3 gusting 13 30.0
2015-Jul-03 21:55 161 4 gusting 13 30.0
2015-Jul-03 21:50 157 3 gusting 13 30.0
2015-Jul-03 21:45 163 6 gusting 13 30.0
2015-Jul-03 21:40 155 6 gusting 9 30.6
2015-Jul-03 21:35 151 4 gusting 9 30.6
2015-Jul-03 21:30 168 1 gusting 9 30.6
2015-Jul-03 21:25 179 3 gusting 10 30.6
2015-Jul-03 21:20 171 2 gusting 10 30.6
2015-Jul-03 21:15 171 6 gusting 10 31.1
2015-Jul-03 21:10 169 5 gusting 13 31.1
2015-Jul-03 21:05 166 6 gusting 13 31.1
2015-Jul-03 21:00 173 4 gusting 13 31.1
2015-Jul-03 20:55 169 2 gusting 9 31.7
2015-Jul-03 20:50 174 6 gusting 9 31.7
2015-Jul-03 20:45 199 3 gusting 6 32.2
2015-Jul-03 20:40 224 3 gusting 6 32.2
2015-Jul-03 20:35 214 5 gusting 10 32.2
2015-Jul-03 20:30 191 4 gusting 10 32.2
2015-Jul-03 20:25 177 6 gusting 10 32.2
2015-Jul-03 20:20 156 2 gusting 8 32.2
2015-Jul-03 20:15 251 3 gusting 8 32.8
2015-Jul-03 20:10 273 2 gusting 8 32.8
2015-Jul-03 20:05 275 6 gusting 8 33.3
2015-Jul-03 20:00 291 6 gusting 10 33.3
2015-Jul-03 19:55 284 4 gusting 10 33.3
2015-Jul-03 19:50 269 6 gusting 12 33.3
2015-Jul-03 19:45 277 6 gusting 12 33.3
2015-Jul-03 19:40 293 9 gusting 12 33.3
2015-Jul-03 19:35 282 6 gusting 9 33.9
2015-Jul-03 19:30 259 6 gusting 9 34.4
2015-Jul-03 19:25 260 6 gusting 9 34.4
2015-Jul-03 19:20 263 6 gusting 9 34.4
2015-Jul-03 19:15 272 6 gusting 13 34.4
2015-Jul-03 19:10 304 6 gusting 13 35.0
2015-Jul-03 19:05 290 9 gusting 12 35.0
2015-Jul-03 19:00 251 4 gusting 13 35.0
2015-Jul-03 18:55 277 7 gusting 13 35.0
2015-Jul-03 18:50 287 10 gusting 13 35.0
2015-Jul-03 18:45 289 7 gusting 13 35.6
2015-Jul-03 18:40 278 3 gusting 11 35.6
2015-Jul-03 18:35 236 6 gusting 13 35.6
2015-Jul-03 18:30 212 9 gusting 13 35.6
2015-Jul-03 18:25 215 6 gusting 14 35.6
2015-Jul-03 18:20 226 6 gusting 14 35.6
2015-Jul-03 18:15 224 9 gusting 13 35.6
2015-Jul-03 18:10 227 7 gusting 13 36.1
2015-Jul-03 18:05 222 5 gusting 9 36.7
2015-Jul-03 18:00 195 5 gusting 11 36.7
2015-Jul-03 17:55 190 6 gusting 14 36.1
2015-Jul-03 17:50 203 7 gusting 14 36.1
2015-Jul-03 17:45 209 10 gusting 14 36.1
2015-Jul-03 17:40 218 10 gusting 14 36.7
2015-Jul-03 17:35 195 6 gusting 13 36.7
2015-Jul-03 17:30 175 4 gusting 13 36.1
2015-Jul-03 17:25 192 6 gusting 14 36.1
2015-Jul-03 17:20 197 6 gusting 14 36.1
2015-Jul-03 17:15 158 12 gusting 14 36.7
2015-Jul-03 17:10 193 6 gusting 14 36.1
2015-Jul-03 17:05 218 11 gusting 14 36.1
2015-Jul-03 17:00 238 6 gusting 13 36.1
2015-Jul-03 16:55 237 6 gusting 15 35.6
2015-Jul-03 16:50 200 6 gusting 18 35.6
2015-Jul-03 16:45 161 13 gusting 18 36.1
2015-Jul-03 16:40 183 5 gusting 18 36.1
2015-Jul-03 16:35 196 8 gusting 18 36.1
2015-Jul-03 16:30 178 7 gusting 15 36.1
2015-Jul-03 16:25 203 7 gusting 15 35.6
2015-Jul-03 16:20 224 12 gusting 16 35.6
2015-Jul-03 16:15 219 12 gusting 18 35.6
2015-Jul-03 16:10 224 10 gusting 18 35.6
2015-Jul-03 16:05 216 11 gusting 20 35.0
2015-Jul-03 16:00 203 11 gusting 20 35.0
2015-Jul-03 15:55 224 9 gusting 18 35.6
2015-Jul-03 15:50 226 3 gusting 21 34.4
2015-Jul-03 15:45 216 12 gusting 21 35.6
2015-Jul-03 15:40 212 14 gusting 18 35.6
2015-Jul-03 15:35 210 8 gusting 18 35.6
2015-Jul-03 15:30 191 6 gusting 18 35.6
2015-Jul-03 15:25 182 2 gusting 14 35.6
2015-Jul-03 15:20 200 8 gusting 17 35.6
2015-Jul-03 15:15 212 11 gusting 19 36.1
2015-Jul-03 15:10 222 3 gusting 19 35.6
2015-Jul-03 15:05 216 8 gusting 17 35.6
2015-Jul-03 15:00 202 4 gusting 18 35.6
2015-Jul-03 14:55 210 6 gusting 18 35.0
2015-Jul-03 14:50 220 12 gusting 17 35.0
2015-Jul-03 14:45 214 7 gusting 17 35.0
2015-Jul-03 14:40 215 6 gusting 19 34.4
2015-Jul-03 14:35 211 9 gusting 19 34.4
2015-Jul-03 14:30 231 6 gusting 17 35.0
2015-Jul-03 14:25 231 13 gusting 18 34.4
2015-Jul-03 14:20 210 11 gusting 18 34.4
2015-Jul-03 14:15 218 13 gusting 18 34.4
2015-Jul-03 14:10 221 6 gusting 12 35.0
2015-Jul-03 14:05 216 9 gusting 21 34.4
2015-Jul-03 14:00 223 9 gusting 22 34.4
2015-Jul-03 13:55 234 18 gusting 22 35.0
2015-Jul-03 13:50 220 8 gusting 19 34.4
2015-Jul-03 13:45 219 15 gusting 19 33.3
2015-Jul-03 13:40 211 13 gusting 19 33.9
2015-Jul-03 13:35 229 2 gusting 19 33.9
2015-Jul-03 13:30 238 7 gusting 19 33.9
2015-Jul-03 13:25 235 9 gusting 18 33.3
2015-Jul-03 13:20 249 8 gusting 20 33.3
2015-Jul-03 13:15 210 9 gusting 20 32.8
2015-Jul-03 13:10 207 12 gusting 18 33.3
2015-Jul-03 13:05 195 13 gusting 18 33.3
2015-Jul-03 13:00 173 2 gusting 17 33.3
2015-Jul-03 12:55 243 6 gusting 20 33.3
2015-Jul-03 12:50 266 14 gusting 20 32.8
2015-Jul-03 12:45 259 9 gusting 19 32.8
2015-Jul-03 12:40 235 11 gusting 20 32.8
2015-Jul-03 12:35 234 3 gusting 20 32.8
2015-Jul-03 12:30 229 12 gusting 24 32.2
2015-Jul-03 12:25 193 13 gusting 24 32.8
2015-Jul-03 12:20 173 2 gusting 15 32.8
2015-Jul-03 12:15 189 4 gusting 16 32.8
2015-Jul-03 12:10 294 3 gusting 16 32.8
2015-Jul-03 12:05 309 5 gusting 12 32.2
2015-Jul-03 12:00 246 5 gusting 12 32.2
2015-Jul-03 11:55 245 4 gusting 12 31.7
2015-Jul-03 11:50 208 8 gusting 12 31.7
2015-Jul-03 11:45 181 6 gusting 11 31.7
2015-Jul-03 11:40 202 6 gusting 14 31.1
2015-Jul-03 11:35 214 3 gusting 14 31.1
2015-Jul-03 11:30 217 1 gusting 13 31.1
2015-Jul-03 11:25 217 6 gusting 13 31.1
2015-Jul-03 11:20 186 6 gusting 13 31.1
2015-Jul-03 11:15 203 5 gusting 11 30.6
2015-Jul-03 11:10 206 6 gusting 11 30.6
2015-Jul-03 11:05 170 6 gusting 10 31.1
2015-Jul-03 11:00 144 6 gusting 9 31.1
2015-Jul-03 10:55 158 4 gusting 15 30.6
2015-Jul-03 10:50 198 3 gusting 15 30.0
2015-Jul-03 10:45 207 10 gusting 15 30.0
2015-Jul-03 10:40 189 7 gusting 12 30.0
2015-Jul-03 10:35 195 1 gusting 12 30.0
2015-Jul-03 10:30 174 4 gusting 12 30.0
2015-Jul-03 10:25 160 1 gusting 12 29.4
2015-Jul-03 10:20 190 4 gusting 8 29.4
2015-Jul-03 10:15 212 3 gusting 9 29.4
2015-Jul-03 10:10 286 5 gusting 9 28.9
2015-Jul-03 10:05 070 2 gusting 9 28.3
2015-Jul-03 10:00 182 2 gusting 9 28.3
2015-Jul-03 09:55 184 5 gusting 9 28.3
2015-Jul-03 09:50 148 6 gusting 9 28.3
2015-Jul-03 09:45 140 6 gusting 9 28.3
2015-Jul-03 09:40 174 3 gusting 7 28.3
2015-Jul-03 09:35 148 3 gusting 9 27.8
2015-Jul-03 09:30 122 4 gusting 9 27.2
2015-Jul-03 09:25 137 4 gusting 8 27.2
2015-Jul-03 09:20 154 4 gusting 8 27.2
2015-Jul-03 09:15 161 4 gusting 6 27.2
2015-Jul-03 09:10 161 1 gusting 7 27.2
2015-Jul-03 09:05 138 3 gusting 7 26.7
2015-Jul-03 09:00 081 3 gusting 7 26.7
2015-Jul-03 08:55 079 4 gusting 12 26.1
2015-Jul-03 08:50 095 3 gusting 12 25.6
2015-Jul-03 08:45 118 3 gusting 10 25.6
2015-Jul-03 08:40 109 6 gusting 10 25.6
2015-Jul-03 08:35 099 6 gusting 9 26.1
2015-Jul-03 08:30 102 6 gusting 9 25.6
2015-Jul-03 08:25 103 3 gusting 9 25.6
2015-Jul-03 08:20 109 6 gusting 9 26.1
2015-Jul-03 08:15 145 1 gusting 7 25.6
2015-Jul-03 08:10 132 1 gusting 7 25.6
2015-Jul-03 08:05 101 2 gusting 6 25.0
2015-Jul-03 08:00 107 2 gusting 7 25.0
2015-Jul-03 07:55 091 3 gusting 9 25.0
2015-Jul-03 07:50 098 6 gusting 9 25.0
2015-Jul-03 07:45 113 3 gusting 6 25.0
2015-Jul-03 07:40 119 1 gusting 6 25.0
2015-Jul-03 07:35 135 1 gusting 7 24.4
2015-Jul-03 07:30 115 3 gusting 9 24.4
2015-Jul-03 07:25 103 6 gusting 9 25.0
2015-Jul-03 07:20 133 3 gusting 5 25.0
2015-Jul-03 07:15 154 2 gusting 6 24.4
2015-Jul-03 07:10 155 1 gusting 7 24.4
2015-Jul-03 07:05 148 3 gusting 7 24.4
2015-Jul-03 07:00 162 1 gusting 6 25.0
2015-Jul-03 06:55 154 1 gusting 6 24.4
2015-Jul-03 06:50 148 5 gusting 7 24.4
2015-Jul-03 06:45 137 4 gusting 7 24.4
2015-Jul-03 06:40 126 3 gusting 6 25.0
2015-Jul-03 06:35 135 0 gusting 6 24.4
2015-Jul-03 06:30 134 2 gusting 6 24.4
2015-Jul-03 06:25 143 3 gusting 5 25.0
2015-Jul-03 06:20 154 0 gusting 4 24.4
2015-Jul-03 06:15 144 1 gusting 5 23.9
2015-Jul-03 06:10 167 1 gusting 7 23.3
2015-Jul-03 06:05 181 3 gusting 7 23.3
2015-Jul-03 06:00 168 4 gusting 6 23.3
2015-Jul-03 05:55 165 1 gusting 5 23.3
2015-Jul-03 05:50 167 1 gusting 5 23.3
2015-Jul-03 05:45 157 3 gusting 5 23.3
2015-Jul-03 05:40 158 1 gusting 2 22.8
2015-Jul-03 05:35 182 0 gusting 6 22.2
2015-Jul-03 05:30 186 1 gusting 6 22.2
2015-Jul-03 05:25 199 0 gusting 3 21.7
2015-Jul-03 05:20 206 0 gusting 3 21.7
2015-Jul-03 05:15 207 1 gusting 3 21.7
2015-Jul-03 05:10 165 1 gusting 2 21.7
2015-Jul-03 05:05 145 0 gusting 3 21.7
2015-Jul-03 05:00 165 0 gusting 3 21.7
2015-Jul-03 04:55 178 1 gusting 3 21.7
2015-Jul-03 04:50 193 2 gusting 3 21.7
2015-Jul-03 04:45 174 2 gusting 5 22.2
2015-Jul-03 04:40 155 1 gusting 5 22.2
2015-Jul-03 04:35 161 3 gusting 5 22.2
2015-Jul-03 04:30 154 1 gusting 5 22.2
2015-Jul-03 04:25 146 3 gusting 6 22.2
2015-Jul-03 04:20 155 3 gusting 6 22.2
2015-Jul-03 04:15 166 2 gusting 6 22.2
2015-Jul-03 04:10 177 3 gusting 6 22.2
2015-Jul-03 04:05 173 2 gusting 6 22.2
2015-Jul-03 04:00 148 3 gusting 5 22.2
2015-Jul-03 03:55 139 2 gusting 5 22.2
2015-Jul-03 03:50 164 0 gusting 6 22.2
2015-Jul-03 03:45 175 2 gusting 6 22.2
2015-Jul-03 03:40 178 2 gusting 6 22.8
2015-Jul-03 03:35 161 2 gusting 6 22.8
2015-Jul-03 03:30 136 2 gusting 6 22.8
2015-Jul-03 03:25 141 3 gusting 6 22.8
2015-Jul-03 03:20 156 1 gusting 6 22.8
2015-Jul-03 03:15 154 1 gusting 6 22.8
2015-Jul-03 03:10 157 3 gusting 6 22.8
2015-Jul-03 03:05 170 3 gusting 7 23.3
2015-Jul-03 03:00 159 2 gusting 7 23.3
2015-Jul-03 02:55 168 5 gusting 7 23.3
2015-Jul-03 02:50 181 1 gusting 7 23.3
2015-Jul-03 02:45 169 5 gusting 8 23.3
2015-Jul-03 02:40 156 2 gusting 8 23.3
2015-Jul-03 02:35 158 1 gusting 6 23.3
2015-Jul-03 02:30 161 3 gusting 9 23.3
2015-Jul-03 02:25 167 1 gusting 9 23.3
2015-Jul-03 02:20 189 1 gusting 6 23.3
2015-Jul-03 02:15 190 1 gusting 8 23.9
2015-Jul-03 02:10 181 1 gusting 8 23.9
2015-Jul-03 02:05 183 1 gusting 5 23.9
2015-Jul-03 02:00 179 1 gusting 5 23.9
2015-Jul-03 01:55 189 1 gusting 6 23.9
2015-Jul-03 01:50 199 2 gusting 6 23.9
2015-Jul-03 01:45 177 4 gusting 6 23.9
2015-Jul-03 01:40 175 2 gusting 6 24.4
2015-Jul-03 01:35 196 2 gusting 9 24.4
2015-Jul-03 01:30 190 1 gusting 9 24.4
2015-Jul-03 01:25 185 4 gusting 9 24.4
2015-Jul-03 01:20 207 2 gusting 11 24.4
2015-Jul-03 01:15 202 3 gusting 11 24.4
2015-Jul-03 01:10 185 3 gusting 9 24.4
2015-Jul-03 01:05 171 3 gusting 13 24.4
2015-Jul-03 01:00 204 1 gusting 13 24.4
2015-Jul-03 00:55 216 2 gusting 8 24.4
2015-Jul-03 00:50 193 3 gusting 8 25.0
2015-Jul-03 00:45 187 1 gusting 8 25.0
2015-Jul-03 00:40 185 1 gusting 8 25.0
2015-Jul-03 00:35 171 1 gusting 8 25.0
2015-Jul-03 00:30 157 3 gusting 8 25.0
2015-Jul-03 00:25 160 6 gusting 7 25.0
2015-Jul-03 00:20 150 2 gusting 8 25.6
2015-Jul-03 00:15 116 4 gusting 9 25.6
2015-Jul-03 00:10 095 3 gusting 9 25.6
2015-Jul-03 00:05 104 3 gusting 13 25.6
2015-Jul-03 00:00 154 3 gusting 15 25.6
2015-Jul-02 23:55 176 6 gusting 16 26.1
2015-Jul-02 23:50 187 8 gusting 16 26.1
2015-Jul-02 23:45 193 4 gusting 15 26.1
2015-Jul-02 23:40 183 4 gusting 18 26.1
2015-Jul-02 23:35 172 9 gusting 18 26.7
2015-Jul-02 23:30 172 12 gusting 18 26.7
2015-Jul-02 23:25 166 6 gusting 18 26.7
2015-Jul-02 23:20 163 6 gusting 18 26.7
2015-Jul-02 23:15 193 9 gusting 19 27.2
2015-Jul-02 23:10 197 9 gusting 19 27.2
2015-Jul-02 23:05 200 7 gusting 18 27.2
2015-Jul-02 23:00 196 9 gusting 18 27.2
2015-Jul-02 22:55 169 6 gusting 18 27.8
2015-Jul-02 22:50 166 3 gusting 16 27.8
2015-Jul-02 22:45 174 9 gusting 16 27.8
2015-Jul-02 22:40 176 8 gusting 13 27.8
2015-Jul-02 22:35 157 5 gusting 13 27.8
2015-Jul-02 22:30 154 6 gusting 13 27.8
2015-Jul-02 22:25 154 0 gusting 7 27.8
2015-Jul-02 22:20 128 2 gusting 6 27.8
2015-Jul-02 22:15 124 3 gusting 6 27.8
2015-Jul-02 22:10 132 2 gusting 5 27.8
2015-Jul-02 22:05 121 3 gusting 5 27.8
2015-Jul-02 22:00 089 3 gusting 6 27.8
2015-Jul-02 21:50 095 4 gusting 6 28.3
2015-Jul-02 21:45 091 3 gusting 3 28.3
2015-Jul-02 21:40 087 1 gusting 4 28.3
2015-Jul-02 21:35 093 3 gusting 4 28.3
2015-Jul-02 21:30 092 2 gusting 3 28.3
2015-Jul-02 21:25 007 1 gusting 1 28.3
2015-Jul-02 21:20 001 0 gusting 1 28.9
2015-Jul-02 21:15 28.9
2015-Jul-02 21:10 347 1 gusting 2 28.9
2015-Jul-02 21:05 338 0 gusting 1 28.9
2015-Jul-02 21:00 337 0 gusting 1 29.4
2015-Jul-02 20:55 29.4
2015-Jul-02 20:50 353 0 gusting 3 29.4
2015-Jul-02 20:45 29.4
2015-Jul-02 20:40 017 2 gusting 3 29.4
2015-Jul-02 20:35 077 2 gusting 3 29.4
2015-Jul-02 20:30 097 0 gusting 3 30.0
2015-Jul-02 20:25 090 1 gusting 5 30.0
2015-Jul-02 20:20 090 3 gusting 5 30.0
2015-Jul-02 20:15 088 3 gusting 5 30.0
2015-Jul-02 20:10 086 3 gusting 4 30.6
2015-Jul-02 20:05 092 1 gusting 2 30.6
2015-Jul-02 20:00 096 1 gusting 2 30.6
2015-Jul-02 19:55 129 1 gusting 2 30.6
2015-Jul-02 19:50 30.6
2015-Jul-02 19:45 224 0 gusting 1 31.1
2015-Jul-02 19:40 31.7
2015-Jul-02 19:35 176 0 gusting 1 31.7
2015-Jul-02 19:30 165 1 gusting 1 32.2
2015-Jul-02 19:25 174 1 gusting 1 32.2
2015-Jul-02 19:20 170 0 gusting 3 32.8
2015-Jul-02 19:15 163 1 gusting 3 33.3
2015-Jul-02 19:10 33.3
2015-Jul-02 19:05 185 0 gusting 3 33.9
2015-Jul-02 19:00 167 0 gusting 3 33.9
2015-Jul-02 18:55 131 1 gusting 3 33.9
2015-Jul-02 18:50 104 0 gusting 6 33.9
2015-Jul-02 18:45 122 1 gusting 6 34.4
2015-Jul-02 18:40 176 1 gusting 4 34.4
2015-Jul-02 18:35 166 0 gusting 4 34.4
2015-Jul-02 18:30 152 1 gusting 4 34.4
2015-Jul-02 18:25 35.0
2015-Jul-02 18:20 072 1 gusting 3 34.4
2015-Jul-02 18:15 079 1 gusting 5 34.4
2015-Jul-02 18:10 058 1 gusting 5 34.4
2015-Jul-02 18:05 045 2 gusting 5 33.3
2015-Jul-02 18:00 052 2 gusting 7 33.3
2015-Jul-02 17:55 036 3 gusting 7 33.3
2015-Jul-02 17:50 048 6 gusting 8 33.9
2015-Jul-02 17:45 062 0 gusting 8 33.3
2015-Jul-02 17:40 046 6 gusting 8 32.8
2015-Jul-02 17:35 043 3 gusting 7 32.8
2015-Jul-02 17:30 015 6 gusting 7 33.9
2015-Jul-02 17:25 320 3 gusting 7 33.9
2015-Jul-02 17:20 336 1 gusting 7 33.9
2015-Jul-02 17:15 346 6 gusting 7 34.4
2015-Jul-02 17:10 319 1 gusting 6 33.9
2015-Jul-02 17:05 347 1 gusting 6 33.3
2015-Jul-02 17:00 112 3 gusting 6 33.9
2015-Jul-02 16:55 224 2 gusting 9 33.3
2015-Jul-02 16:50 238 5 gusting 11 32.8
2015-Jul-02 16:45 241 5 gusting 13 32.2
2015-Jul-02 16:40 234 7 gusting 13 32.8
2015-Jul-02 16:35 229 6 gusting 13 32.2
2015-Jul-02 16:30 248 8 gusting 13 32.8
2015-Jul-02 16:25 004 6 gusting 10 33.9
2015-Jul-02 16:20 059 2 gusting 8 33.3
2015-Jul-02 16:15 258 6 gusting 14 32.8
2015-Jul-02 16:10 249 6 gusting 14 32.2
2015-Jul-02 16:05 251 11 gusting 17 32.2
2015-Jul-02 16:00 248 11 gusting 17 32.2
2015-Jul-02 15:55 250 13 gusting 16 33.3
2015-Jul-02 15:50 300 3 gusting 11 33.9
2015-Jul-02 15:45 281 0 gusting 11 32.2
2015-Jul-02 15:40 251 4 gusting 13 32.2
2015-Jul-02 15:35 297 3 gusting 19 31.7
2015-Jul-02 15:30 294 12 gusting 19 31.7
2015-Jul-02 15:25 262 6 gusting 13 32.2
2015-Jul-02 15:20 241 9 gusting 13 32.8
2015-Jul-02 15:15 234 6 gusting 6 32.2
2015-Jul-02 15:10 237 3 gusting 9 31.7
2015-Jul-02 15:05 225 2 gusting 12 30.6
2015-Jul-02 15:00 223 6 gusting 13 30.6
2015-Jul-02 14:55 260 6 gusting 13 30.6
2015-Jul-02 14:50 279 3 gusting 14 30.6
2015-Jul-02 14:45 252 11 gusting 14 31.1
2015-Jul-02 14:40 193 9 gusting 13 32.2
2015-Jul-02 14:35 212 3 gusting 12 32.2
2015-Jul-02 14:30 240 6 gusting 14 31.7
2015-Jul-02 14:25 269 7 gusting 14 31.1
2015-Jul-02 14:20 277 5 gusting 12 30.6
2015-Jul-02 14:15 232 7 gusting 12 30.6
2015-Jul-02 14:10 225 6 gusting 12 30.6
2015-Jul-02 14:05 220 7 gusting 16 30.6
2015-Jul-02 14:00 224 7 gusting 16 30.6
2015-Jul-02 13:55 231 9 gusting 14 30.6
2015-Jul-02 13:50 234 6 gusting 14 31.1
2015-Jul-02 13:45 218 9 gusting 11 31.1
2015-Jul-02 13:40 233 9 gusting 12 31.1
2015-Jul-02 13:35 243 7 gusting 16 30.6
2015-Jul-02 13:30 244 9 gusting 16 30.0
2015-Jul-02 13:25 243 7 gusting 19 30.0
2015-Jul-02 13:20 228 6 gusting 19 30.6
2015-Jul-02 13:15 237 6 gusting 11 31.1
2015-Jul-02 13:10 238 5 gusting 13 30.6
2015-Jul-02 13:05 217 3 gusting 13 30.0
2015-Jul-02 13:00 197 6 gusting 9 30.6
2015-Jul-02 12:55 173 6 gusting 9 30.6
2015-Jul-02 12:50 181 6 gusting 9 30.6
2015-Jul-02 12:45 205 3 gusting 13 30.0
2015-Jul-02 12:40 206 6 gusting 13 30.6
2015-Jul-02 12:35 193 1 gusting 13 30.0
2015-Jul-02 12:30 209 8 gusting 17 29.4
2015-Jul-02 12:25 246 6 gusting 17 28.9
2015-Jul-02 12:20 264 13 gusting 17 28.9
2015-Jul-02 12:15 258 9 gusting 14 28.9
2015-Jul-02 12:10 292 10 gusting 13 28.9
2015-Jul-02 12:05 285 7 gusting 15 29.4
2015-Jul-02 12:00 203 7 gusting 15 29.4
2015-Jul-02 11:55 213 2 gusting 14 28.9
2015-Jul-02 11:50 239 7 gusting 14 28.3
2015-Jul-02 11:45 270 9 gusting 16 28.3
2015-Jul-02 11:40 276 9 gusting 16 28.9
2015-Jul-02 11:35 262 6 gusting 13 28.9
2015-Jul-02 11:30 233 5 gusting 13 28.9
2015-Jul-02 11:25 222 3 gusting 12 28.9
2015-Jul-02 11:20 207 6 gusting 12 28.9
2015-Jul-02 11:15 198 3 gusting 12 28.9
2015-Jul-02 11:10 233 1 gusting 18 27.8
2015-Jul-02 11:05 260 9 gusting 18 27.8
2015-Jul-02 11:00 280 3 gusting 15 27.8
2015-Jul-02 10:55 271 13 gusting 15 28.3
2015-Jul-02 10:50 233 1 gusting 13 27.8
2015-Jul-02 10:45 242 6 gusting 13 27.2
2015-Jul-02 10:40 234 11 gusting 13 27.8
2015-Jul-02 10:35 226 6 gusting 13 27.8
2015-Jul-02 10:30 228 4 gusting 13 27.8
2015-Jul-02 10:25 231 3 gusting 12 27.8
2015-Jul-02 10:20 238 3 gusting 16 27.2
2015-Jul-02 10:15 213 7 gusting 16 27.8
2015-Jul-02 10:10 217 4 gusting 9 27.2
2015-Jul-02 10:05 237 6 gusting 13 27.8
2015-Jul-02 10:00 270 6 gusting 13 27.8
2015-Jul-02 09:55 277 2 gusting 9 27.8
2015-Jul-02 09:50 256 4 gusting 9 27.2
2015-Jul-02 09:45 227 4 gusting 10 26.7
2015-Jul-02 09:40 218 5 gusting 11 26.7
2015-Jul-02 09:35 235 6 gusting 11 26.7
2015-Jul-02 09:30 200 2 gusting 7 27.2
2015-Jul-02 09:25 232 1 gusting 9 27.2
2015-Jul-02 09:20 265 3 gusting 9 26.1
2015-Jul-02 09:15 248 6 gusting 12 26.7
2015-Jul-02 09:10 234 3 gusting 12 26.1
2015-Jul-02 09:05 252 3 gusting 11 26.1
2015-Jul-02 09:00 270 3 gusting 11 26.1
2015-Jul-02 08:55 265 5 gusting 7 26.1
2015-Jul-02 08:50 252 4 gusting 7 26.1
2015-Jul-02 08:45 231 1 gusting 7 25.6
2015-Jul-02 08:40 235 5 gusting 7 25.6
2015-Jul-02 08:35 247 2 gusting 9 25.6
2015-Jul-02 08:30 231 3 gusting 9 25.6
2015-Jul-02 08:25 217 1 gusting 9 25.6
2015-Jul-02 08:20 219 3 gusting 9 25.0
2015-Jul-02 08:15 234 6 gusting 8 26.1
2015-Jul-02 08:10 255 2 gusting 7 25.6
2015-Jul-02 08:05 230 3 gusting 7 25.0
2015-Jul-02 08:00 202 3 gusting 6 25.0
2015-Jul-02 07:55 192 4 gusting 6 25.0
2015-Jul-02 07:50 189 2 gusting 6 24.4
2015-Jul-02 07:45 204 3 gusting 6 24.4
2015-Jul-02 07:40 207 4 gusting 7 23.9
2015-Jul-02 07:00 193 4 gusting 7 21.7
2015-Jul-02 06:55 210 4 gusting 8 21.7
2015-Jul-02 06:50 194 6 gusting 9 21.7
2015-Jul-02 06:45 191 5 gusting 9 22.2
2015-Jul-02 06:40 220 3 gusting 9 22.8
2015-Jul-02 06:35 222 4 gusting 9 22.2
2015-Jul-02 06:30 222 5 gusting 9 21.7
2015-Jul-02 06:25 209 6 gusting 8 21.1
2015-Jul-02 06:20 197 5 gusting 7 21.1
2015-Jul-02 06:15 202 4 gusting 7 21.1
2015-Jul-02 06:10 195 5 gusting 7 21.1
2015-Jul-02 06:05 183 3 gusting 6 21.7
2015-Jul-02 06:00 170 3 gusting 6 21.7
2015-Jul-02 05:55 171 2 gusting 5 21.7
2015-Jul-02 05:50 192 3 gusting 6 21.1
2015-Jul-02 05:45 185 2 gusting 6 20.6
2015-Jul-02 05:40 178 2 gusting 6 20.6
2015-Jul-02 05:35 183 4 gusting 6 20.6
2015-Jul-02 05:30 193 3 gusting 6 21.1
2015-Jul-02 05:25 183 3 gusting 6 21.1
2015-Jul-02 05:20 166 1 gusting 6 21.1
2015-Jul-02 05:15 188 3 gusting 6 20.6
2015-Jul-02 05:10 200 3 gusting 6 21.1
2015-Jul-02 05:05 177 1 gusting 6 21.1
2015-Jul-02 05:00 161 1 gusting 6 21.1
2015-Jul-02 04:55 174 3 gusting 6 21.1
2015-Jul-02 04:50 185 3 gusting 6 21.1
2015-Jul-02 04:45 190 2 gusting 6 21.1
2015-Jul-02 04:40 202 2 gusting 6 21.1
2015-Jul-02 04:35 192 3 gusting 6 21.1
2015-Jul-02 04:30 178 3 gusting 6 21.7
2015-Jul-02 04:25 249 2 gusting 6 21.7
2015-Jul-02 04:20 281 1 gusting 6 21.7
2015-Jul-02 04:15 214 2 gusting 5 21.7
2015-Jul-02 04:10 189 1 gusting 5 21.7
2015-Jul-02 04:05 182 1 gusting 6 21.7
2015-Jul-02 04:00 185 1 gusting 6 21.7
2015-Jul-02 03:55 206 3 gusting 6 21.7
2015-Jul-02 03:50 204 3 gusting 6 22.2
2015-Jul-02 03:45 182 2 gusting 4 22.2
2015-Jul-02 03:40 182 3 gusting 5 22.2
2015-Jul-02 03:35 194 2 gusting 7 22.2
2015-Jul-02 03:30 191 3 gusting 7 22.2
2015-Jul-02 03:25 167 6 gusting 7 22.2
2015-Jul-02 03:20 175 3 gusting 6 22.8
2015-Jul-02 03:15 200 3 gusting 6 23.3
2015-Jul-02 03:10 207 3 gusting 6 23.3
2015-Jul-02 03:05 210 3 gusting 9 23.3
2015-Jul-02 03:00 214 4 gusting 9 23.3
2015-Jul-02 02:55 213 6 gusting 9 23.3
2015-Jul-02 02:50 211 4 gusting 9 23.3
2015-Jul-02 02:45 216 6 gusting 8 22.8
2015-Jul-02 02:40 207 6 gusting 7 22.8
2015-Jul-02 02:35 196 4 gusting 7 22.8
2015-Jul-02 02:30 184 5 gusting 7 22.8
2015-Jul-02 02:25 173 6 gusting 6 22.8
2015-Jul-02 02:20 177 3 gusting 6 22.8
2015-Jul-02 02:15 175 2 gusting 6 23.3
2015-Jul-02 02:10 176 3 gusting 6 23.9
2015-Jul-02 02:05 199 3 gusting 6 24.4
2015-Jul-02 02:00 221 3 gusting 8 24.4
2015-Jul-02 01:55 230 4 gusting 8 24.4
2015-Jul-02 01:50 232 4 gusting 11 24.4
2015-Jul-02 01:45 219 6 gusting 12 24.4
2015-Jul-02 01:40 220 6 gusting 12 24.4
2015-Jul-02 01:35 232 6 gusting 13 24.4
2015-Jul-02 01:30 225 8 gusting 13 24.4
2015-Jul-02 01:25 227 9 gusting 10 24.4
2015-Jul-02 01:20 231 6 gusting 11 24.4
2015-Jul-02 01:15 213 6 gusting 11 24.4
2015-Jul-02 01:10 202 8 gusting 9 23.9
2015-Jul-02 01:05 195 3 gusting 9 23.9
2015-Jul-02 01:00 201 4 gusting 11 24.4
2015-Jul-02 00:55 216 5 gusting 12 25.0
2015-Jul-02 00:50 221 8 gusting 12 25.0
2015-Jul-02 00:45 229 6 gusting 12 25.0
2015-Jul-02 00:40 239 3 gusting 12 25.6
2015-Jul-02 00:35 235 8 gusting 13 25.6
2015-Jul-02 00:30 228 7 gusting 14 25.6
2015-Jul-02 00:25 234 8 gusting 14 25.6
2015-Jul-02 00:20 243 9 gusting 15 25.6
2015-Jul-02 00:15 255 11 gusting 15 26.1
2015-Jul-02 00:10 256 11 gusting 15 26.1
2015-Jul-02 00:05 246 11 gusting 17 26.1
2015-Jul-02 00:00 250 11 gusting 17 26.1
2015-Jul-01 23:55 252 13 gusting 14 26.1
2015-Jul-01 23:50 235 11 gusting 14 26.1
2015-Jul-01 23:45 231 8 gusting 14 26.7
2015-Jul-01 23:40 236 9 gusting 14 26.7
2015-Jul-01 23:35 228 11 gusting 13 26.7
2015-Jul-01 23:30 225 6 gusting 14 26.7
2015-Jul-01 23:25 229 9 gusting 15 27.2
2015-Jul-01 23:20 242 11 gusting 15 27.2
2015-Jul-01 23:15 263 9 gusting 15 27.2
2015-Jul-01 23:10 257 9 gusting 15 27.2
2015-Jul-01 23:05 237 11 gusting 15 26.7
2015-Jul-01 23:00 220 7 gusting 12 26.1